Flag for U.S.A. Weather past 2 weeks in Missoula, Montana, U.S.A.

Now
57 °F

Passing clouds.


Feels Like: 53 °F
Forecast: 47 / 54 °F
Wind: 18 mph from West

Location: Missoula International Airport

Current Time: Sep 30, 2014 at 1:59:40 PM

Latest Report: Sep 30, 2014 at 12:53 PM


Visibility: 10 mi

Pressure: 29.87 "Hg

Humidity: 51%

Dew point: 39 °F

Location of MissoulaLocation

Historic Weather in Missoula — Graph

°F

Missoula temperature yesterday

Maximum temperature yesterday: 58 °F (at 12:53 PM)
Minimum temperature yesterday: 51 °F (at 7:53 AM)
Average temperature yesterday: 55 °F

Past Weeks' High & Low Weather Summary

 TemperatureHumidityPressure
High92 °F (Sep 24, 3:53 PM)100% (Sep 26, 7:53 AM)30.25 "Hg (Sep 26, 7:53 AM)
Low42 °F (Sep 16, 7:53 AM)13% (Sep 24, 3:53 PM)29.67 "Hg (Sep 25, 3:53 PM)
Average62 °F54%29.94 "Hg
* Reported Sep 15 12:53 PM — Sep 30 12:53 PM, Missoula, Weather by CustomWeather, © 2014

Note: Actual official high and low records may vary slightly from our data, if they occured in-between our weather recording intervals... More about our weather records

Advertising

Missoula weather history for previous 24 hours

 ConditionsComfort  
Time TempWeatherWind HumidityBarometerVisibility
12:53 PM
Sep 30
57 °FPassing clouds.18 mph51%29.87 "Hg10 mi
11:53 AM54 °FOvercast.22 mph59%29.87 "Hg10 mi
10:53 AM56 °FPartly sunny.7 mph70%29.85 "Hg10 mi
10:02 AM53 °FMore clouds than sun.No wind93%29.86 "Hg10 mi
9:53 AM53 °FMostly cloudy.No wind96%29.85 "Hg10 mi
9:04 AM51 °FFog.3 mph100%29.84 "Hg2 mi
8:53 AM51 °FFog.5 mph100%29.84 "Hg1 mi
7:53 AM50 °FLight rain. Overcast.3 mph100%29.82 "Hg9 mi
6:53 AM50 °FLight rain. Fog.5 mph100%29.80 "Hg6 mi
5:53 AM50 °FLight rain. Overcast.No wind100%29.80 "Hg7 mi
4:53 AM51 °FMostly cloudy.No wind100%29.80 "Hg10 mi
3:53 AM50 °FOvercast.No wind100%29.82 "Hg10 mi
2:53 AM50 °FLight rain. Mostly cloudy.No wind100%29.83 "Hg9 mi
1:53 AM50 °FPartly cloudy.No wind100%29.83 "Hg9 mi
12:53 AM52 °FOvercast.No wind97%29.83 "Hg10 mi
11:53 PM
Sep 29
52 °FPartly cloudy.3 mph100%29.84 "Hg10 mi
10:53 PM52 °FLight rain. Overcast.No wind100%29.84 "Hg10 mi
9:53 PM52 °FLight rain. Mostly cloudy.3 mph100%29.84 "Hg8 mi
8:53 PM52 °FLight rain. Overcast.8 mph97%29.84 "Hg9 mi
7:53 PM54 °FOvercast.No wind93%29.83 "Hg10 mi
6:53 PM55 °FLight rain. Mostly cloudy.5 mph87%29.83 "Hg10 mi
5:53 PM56 °FLight rain. Overcast.6 mph81%29.83 "Hg10 mi
4:53 PM57 °FLight rain. Overcast.3 mph72%29.83 "Hg10 mi
3:53 PM58 °FOvercast.6 mph65%29.83 "Hg10 mi
2:53 PM58 °FOvercast.5 mph60%29.84 "Hg10 mi
1:53 PM58 °FOvercast.6 mph60%29.85 "Hg10 mi
Weather by CustomWeather, © 2014

See weather overviewHow to use our weather pages